Location: Drocourt
(49.0571°N, 1.7669°E)
Time: 13:42:58
(UTC+00:00)

SR - Pass Details

Date: 13 April 2024
Orbit: 579 x 859 km, 66.7° (Epoch: 28 May)

Event Time Altitude Azimuth Distance (km) Brightness Sun altitude
Rises 02:28:17 0° 179° (S) 3,376 - -22.6°
Reaches altitude 10° 02:31:06 10° 168° (SSE) 2,416 - -22.3°
Exits shadow 02:32:41 17° 157° (SSE) 1,949 ? -22.1°
Maximum altitude 02:35:43 27° 112° (ESE) 1,475 ? -21.8°
Drops below altitude 10° 02:40:07 10° 56° (NE) 2,292 ? -21.3°
Sets 02:42:42 0° 44° (NE) 3,172 ? -21.0°
